Location: Grossmotten
(48.5500°N, 15.3833°E)
Time: 02:52:58
(UTC+00:00)

Radarsat Rocket - Pass Details

Date: 15 November 2019
Orbit: 933 x 1492 km, 100.6° (Epoch: 13 December)

Event Time Altitude Azimuth Distance (km) Brightness Sun altitude
Rises 05:18:45 0° 16° (NNE) 3,667 7.0 -8.0°
Reaches altitude 10° 05:21:13 10° 16° (NNE) 2,685 6.3 -7.6°
Maximum altitude 05:27:07 82° 291° (WNW) 949 3.9 -6.7°
Drops below altitude 10° 05:32:58 10° 204° (SSW) 2,669 6.3 -5.8°
Sets 05:35:25 0° 203° (SSW) 3,645 7.0 -5.4°
